AEROCUBE 7

Last updated on Tue Jul 08 2025 00:03:44 GMT+0000 (Coordinated Universal Time)

1 40966U 15058C 25188.49301003 .00003213 00000+0 26669-3 0 9998 2 40966 64.7633 241.5622 0152333 191.5032 168.2588 14.92053001314467
UTC large
Height (km)
Speed (km/s)
/
Latitude / Longitude
Inclination (degrees)
Orbital Period (minutes)
Azimuth
Elevation
Range (km)
Doppler Factor

Next 0 passes for location: London (51.5072 / 0.1276)

Sorry there are no passes over London.